TimeCST,TemperatureF,Dew PointF,Humidity,Sea Level PressureIn,VisibilityMPH,Wind Direction,Wind SpeedMPH,Gust SpeedMPH,PrecipitationIn,Events,Conditions,WindDirDegrees,DateUTC
12:56 AM,57.9,54.0,87,29.94,10.0,East,6.9,-,N/A,,Clear,80,2012-12-07 06:56:00
1:56 AM,57.9,55.0,90,29.94,10.0,East,5.8,-,N/A,,Clear,90,2012-12-07 07:56:00
2:48 AM,59.0,55.4,88,29.98,10.0,East,6.9,-,N/A,,Mostly Cloudy,80,2012-12-07 08:48:00
2:56 AM,59.0,55.9,90,29.93,10.0,ENE,9.2,-,N/A,,Mostly Cloudy,70,2012-12-07 08:56:00
3:12 AM,57.2,55.4,94,29.97,10.0,ENE,8.1,-,N/A,,Scattered Clouds,70,2012-12-07 09:12:00
3:56 AM,57.0,55.0,93,29.94,10.0,ENE,4.6,-,N/A,,Clear,60,2012-12-07 09:56:00
4:56 AM,57.9,55.9,93,29.94,10.0,East,6.9,-,N/A,,Clear,90,2012-12-07 10:56:00
5:14 AM,57.2,55.4,94,29.98,10.0,East,6.9,-,N/A,,Partly Cloudy,90,2012-12-07 11:14:00
5:29 AM,57.2,55.4,94,29.99,10.0,East,4.6,-,N/A,,Mostly Cloudy,100,2012-12-07 11:29:00
5:56 AM,57.9,55.9,93,29.96,10.0,East,4.6,-,N/A,,Overcast,100,2012-12-07 11:56:00
6:56 AM,59.0,57.0,93,29.97,10.0,ENE,8.1,-,N/A,,Overcast,70,2012-12-07 12:56:00
7:56 AM,60.1,57.9,93,29.98,10.0,East,8.1,-,N/A,,Overcast,90,2012-12-07 13:56:00
8:19 AM,60.8,57.2,88,30.02,10.0,East,6.9,-,N/A,,Overcast,100,2012-12-07 14:19:00
8:56 AM,61.0,57.9,90,30.00,10.0,East,8.1,-,N/A,,Overcast,100,2012-12-07 14:56:00
9:56 AM,62.1,59.0,90,29.99,10.0,East,8.1,-,N/A,,Overcast,90,2012-12-07 15:56:00
10:56 AM,66.0,60.1,81,29.97,10.0,ESE,10.4,-,N/A,,Overcast,110,2012-12-07 16:56:00
11:10 AM,66.2,59.0,78,30.00,10.0,ESE,11.5,-,N/A,,Overcast,120,2012-12-07 17:10:00
11:56 AM,66.9,60.1,79,29.94,10.0,ESE,9.2,-,N/A,,Overcast,110,2012-12-07 17:56:00
12:56 PM,68.0,60.1,76,29.92,10.0,East,6.9,-,N/A,,Overcast,90,2012-12-07 18:56:00
1:17 PM,68.0,60.8,78,29.95,10.0,East,5.8,-,N/A,,Overcast,100,2012-12-07 19:17:00
1:56 PM,68.0,61.0,78,29.91,10.0,East,4.6,-,N/A,,Overcast,80,2012-12-07 19:56:00
2:56 PM,68.0,61.0,78,29.91,10.0,East,5.8,-,N/A,,Overcast,100,2012-12-07 20:56:00
3:56 PM,68.0,61.0,78,29.91,10.0,SE,6.9,-,N/A,,Overcast,130,2012-12-07 21:56:00
4:25 PM,66.2,60.8,83,29.95,10.0,ESE,6.9,-,N/A,,Overcast,110,2012-12-07 22:25:00
4:56 PM,66.9,61.0,81,29.91,10.0,East,4.6,-,N/A,,Overcast,90,2012-12-07 22:56:00
5:56 PM,66.0,61.0,84,29.92,10.0,East,5.8,-,N/A,,Overcast,90,2012-12-07 23:56:00
6:56 PM,64.9,60.1,84,29.93,10.0,East,6.9,-,N/A,,Overcast,100,2012-12-08 00:56:00
7:56 PM,64.9,60.1,84,29.94,10.0,East,5.8,-,N/A,,Overcast,100,2012-12-08 01:56:00
8:56 PM,64.0,59.0,84,29.94,10.0,East,3.5,-,N/A,,Overcast,100,2012-12-08 02:56:00
9:56 PM,61.0,57.9,90,29.95,10.0,SE,3.5,-,N/A,,Mostly Cloudy,130,2012-12-08 03:56:00
10:14 PM,60.8,57.2,88,29.99,10.0,ESE,3.5,-,N/A,,Scattered Clouds,110,2012-12-08 04:14:00
10:56 PM,60.1,57.9,93,29.95,10.0,ESE,5.8,-,N/A,,Scattered Clouds,110,2012-12-08 04:56:00
11:14 PM,62.6,59.0,88,29.98,10.0,East,3.5,-,N/A,,Mostly Cloudy,90,2012-12-08 05:14:00
11:29 PM,60.8,57.2,88,29.98,10.0,East,5.8,-,N/A,,Scattered Clouds,100,2012-12-08 05:29:00
11:56 PM,60.1,57.9,93,29.94,10.0,Calm,Calm,-,N/A,,Mostly Cloudy,0,2012-12-08 05:56:00